TimeCST,TemperatureF,Dew PointF,Humidity,Sea Level PressureIn,VisibilityMPH,Wind Direction,Wind SpeedMPH,Gust SpeedMPH,PrecipitationIn,Events,Conditions,WindDirDegrees,DateUTC
6:00 AM,78,64,54,29.87,12,East,13.8,,,,,80,2013-01-04 12:00:00
6:00 AM,78.8,64.4,61,29.85,-9999.0,East,13.8,-,N/A,,Clear,80,2013-01-04 12:00:00
7:00 AM,73.4,66.2,78,29.89,-9999.0,NE,5.8,-,N/A,,Clear,50,2013-01-04 13:00:00
8:00 AM,82.4,64.4,54,29.91,-9999.0,SW,4.6,-,N/A,,Clear,220,2013-01-04 14:00:00
9:00 AM,86,60,31,29.92,12,ENE,18.4,,,,,70,2013-01-04 15:00:00
9:00 AM,86.0,60.8,43,29.91,-9999.0,ENE,18.4,-,N/A,,Clear,70,2013-01-04 15:00:00
10:00 AM,87.8,60.8,40,29.90,-9999.0,ENE,17.3,-,N/A,,Clear,70,2013-01-04 16:00:00
11:00 AM,89.6,59.0,36,29.88,-9999.0,ENE,15.0,-,N/A,,Clear,70,2013-01-04 17:00:00
12:00 PM,90,63,30,29.88,12,ENE,15.0,,,,,70,2013-01-04 18:00:00
12:00 PM,89.6,62.6,40,29.86,-9999.0,ENE,15.0,-,N/A,,Clear,70,2013-01-04 18:00:00
1:00 PM,91.4,62.6,38,29.83,-9999.0,ENE,15.0,-,N/A,,Clear,60,2013-01-04 19:00:00
2:00 PM,89.6,66.2,46,29.80,6.2,NE,18.4,-,N/A,,Scattered Clouds,50,2013-01-04 20:00:00
3:00 PM,86,66,41,29.81,12,ENE,19.6,,,,Scattered Clouds,60,2013-01-04 21:00:00
3:00 PM,86.0,66.2,51,29.79,6.2,ENE,19.6,-,N/A,,Mostly Cloudy,60,2013-01-04 21:00:00
4:00 PM,84.2,68.0,58,29.80,6.2,ENE,20.7,-,N/A,,Mostly Cloudy,60,2013-01-04 22:00:00
5:00 PM,82.4,66.2,58,29.81,6.2,ENE,15.0,-,N/A,,Mostly Cloudy,60,2013-01-04 23:00:00
6:00 PM,80,67,55,29.83,12,ENE,17.3,,,,Scattered Clouds,60,2013-01-05 00:00:00
6:00 PM,80.6,66.2,61,29.81,6.2,ENE,17.3,-,N/A,,Scattered Clouds,60,2013-01-05 00:00:00
7:00 PM,78.8,66.2,65,29.84,-9999.0,ENE,13.8,-,N/A,,Clear,60,2013-01-05 01:00:00
8:00 PM,78.8,66.2,65,29.87,-9999.0,East,9.2,-,N/A,,Clear,80,2013-01-05 02:00:00